Tracking 34138 objects as of 15-May-2026
HD Live streaming from Space Station
objects crossing your sky now

STARLINK-36825

Track STARLINK-36825 now!
10-day predictions
STARLINK-36825 is classified as:


NORAD ID: 68041
Int'l Code: 2026-041B
Perigee: 468.6 km
Apogee: 471.2 km
Inclination: 53.2 °
Period: 93.8 minutes
Semi major axis: 6840 km
RCS: Unknown
Launch date: March 2, 2026
Source: United States (US)
Launch site: AIR FORCE EASTERN TEST RANGE (AFETR)
Your satellite tracking list
Your tracking list is empty




NASA's NSSDC Master Catalog

Two Line Element Set (TLE):
1 68041U 26041B   26135.25002315  .00023066  00000-0  69239-3 0  9996
2 68041  53.1587  99.0594 0001901  84.7166 219.3196 15.34368588  5938
Source of the keplerian elements: AFSPC